Tracking 18785 objects as of 20-August-2017
HD Live streaming from Space Station
objects crossing your sky now

ANNA 1B

Track ANNA 1B now!
10-day predictions
ANNA 1B is classified as:


NORAD ID: 446
Int'l Code: 1962-060A
Perigee: 1,081.5 km
Apogee: 1,186.8 km
Inclination: 50.1 °
Period: 107.8 minutes
Semi major axis: 7505 km
RCS: 0.8414 m2 (medium)
Launch date: October 31, 1962
Source: United States (US)
Launch site: AIR FORCE EASTERN TEST RANGE (AFETR)
Your satellite tracking list
Your tracking list is empty





NASA's NSSDC Master Catalog

Two Line Element Set (TLE):
1   446U 62060A   17231.94828983 -.00000126 +00000-0 +64083-6 0  9990
2   446 050.1417 124.4782 0070152 168.9141 277.7389 13.35259471673062
Source of the keplerian elements: AFSPC